Location: Góry Miechowskie
(50.3599°N, 20.1803°E)
Time: 11:39:15
(UTC+00:00)

CZ-4C R/B - Pass Details

Date: 15 June 2024
Orbit: 526 x 1467 km, 63.4° (Epoch: 15 July)

Event Time Altitude Azimuth Distance (km) Brightness Sun altitude
Rises 00:58:45 0° 274° (W) 3,081 4.8 -10.2°
Reaches altitude 10° 01:01:12 10° 286° (WNW) 2,290 4.3 -10.0°
Maximum altitude 01:05:45 28° 346° (NNW) 1,595 4.2 -9.6°
Drops below altitude 10° 01:11:19 10° 43° (NE) 2,843 6.6 -9.1°
Sets 01:14:44 0° 55° (NE) 3,976 7.3 -8.8°
